{"data":{"norad_id":57703,"epoch":"2026-09-20T22:33:42.003936Z","epoch_age_seconds":93691,"freshness":"FRESH","line1":"1 57703U 23129F   26263.94006949  .00000095  00000+0  12982-4 0  9998","line2":"2 57703  43.0020  95.2336 0001447 270.1365  89.9321 15.27576747170406","mean_motion":15.27576747,"eccentricity":0.0001447,"inclination_deg":43.002,"raan_deg":95.2336,"arg_perigee_deg":270.1365,"mean_anomaly_deg":89.9321,"bstar":1.2982e-5,"rev_number":17040,"period_min":94.266949456255,"perigee_km":482.06602167163,"apogee_km":484.05165174677,"semimajor_km":6861.1958367092,"source":"CELESTRAK","updated_at":"2026-09-21T09:00:33.674795Z"}}